Overview Statistics Trail Chart Weather Telemetry Raw packets
 

This is the latest recevied weather packets stored in our database for station/object DG6YGE-6. If no packets are shown the sender has not sent any weather packets the latest 10 day(s).

<< 30 31 32 33 34 35 36 >>
Time Temp. Humidity Pressure Rain* Wind** Luminosity Snow
1788206950 15° C 92% 1012.3 hPa 0 mm - 0 W/m² -
1788206350 15° C 92% 1012.2 hPa 0 mm - 0 W/m² -
1788205751 15° C 92% 1012.1 hPa 0 mm - 0 W/m² -
1788205151 15° C 92% 1012.1 hPa 0 mm - 0 W/m² -
1788204550 15° C 92% 1012 hPa 0 mm - 0 W/m² -
1788203950 15.56° C 91% 1012.1 hPa 1.27 mm - 0 W/m² -
1788203350 15.56° C 91% 1011.9 hPa 2.29 mm - 0 W/m² -
1788202751 15.56° C 90% 1011.8 hPa 2.29 mm - 0 W/m² -
1788202150 15.56° C 89% 1011.7 hPa 2.29 mm - 0 W/m² -
1788201551 16.11° C 88% 1011.5 hPa 2.29 mm - 0 W/m² -
1788200950 16.11° C 88% 1011.4 hPa 2.29 mm - 0 W/m² -
1788200350 16.67° C 85% 1011.1 hPa 1.27 mm - 0 W/m² -
1788199750 17.22° C 84% 1011 hPa 0 mm - 0 W/m² -
1788199150 17.22° C 83% 1010.6 hPa 0 mm - 6 W/m² -
1788198550 17.22° C 83% 1010.5 hPa 0 mm - 13 W/m² -
1788197950 16.67° C 83% 1010.4 hPa 0 mm - 71 W/m² -
1788197350 16.67° C 83% 1010.3 hPa 0 mm - 32 W/m² -
1788196750 17.22° C 83% 1010.2 hPa 0 mm - 38 W/m² -
1788196151 17.22° C 83% 1010 hPa 0 mm - 27 W/m² -
1788195551 17.22° C 82% 1010.2 hPa 0 mm - 24 W/m² -
1788194950 17.22° C 82% 1010.1 hPa 0 mm - 53 W/m² -
1788194351 17.78° C 82% 1010 hPa 0 mm - 120 W/m² -
1788193751 17.78° C 82% 1009.8 hPa 0 mm - 78 W/m² -
1788193150 17.78° C 84% 1009.8 hPa 0 mm - 242 W/m² -
1788192551 17.22° C 84% 1009.7 hPa 0 mm - 219 W/m² -

* Rain latest hour (hover to see other rain measurements)
** Current wind speed in m/s (hover to see current wind gust speed)